GW4552 Weather Reports


Display with metric or nautical units.
time (UTC)temp
F
wind
direction
speed
MPH
gust
MPH
rain 1hr
in
rain 24hr
in
rain mn
in
humidity
%
barometer
mb
20260508002000 52 73 2.0 3.0 0.00 0.00 0.00 49 1012.9
20260508001501 53 334 4.0 7.0 0.00 0.00 0.00 47 1012.7
20260508001000 53 18 4.0 6.0 0.00 0.00 0.00 46 1012.6
20260508000501 53 137 1.0 6.0 0.00 0.00 0.00 46 1012.6
20260508000001 54 170 2.0 5.0 0.00 0.00 0.00 45 1012.6
20260507235500 54 3 5.0 7.0 0.00 0.00 0.00 44 1012.6
20260507235001 55 58 4.0 5.0 0.00 0.00 0.00 42 1012.5
20260507234500 55 269 6.0 8.0 0.00 0.00 0.00 41 1012.5
20260507234001 56 245 4.0 5.0 0.00 0.00 0.00 41 1012.4
20260507233511 55 246 2.0 4.0 0.00 0.00 0.00 42 1012.3
20260507233002 55 96 2.0 4.0 0.00 0.00 0.00 41 1012.3
20260507232501 55 10 4.0 9.0 0.00 0.00 0.00 41 1012.3
20260507232001 55 180 1.0 8.0 0.00 0.00 0.00 41 1012.2
20260507231501 55 259 8.0 17.0 0.00 0.00 0.00 40 1012.3
20260507231006 55 308 2.0 8.0 0.00 0.00 0.00 40 1012.2
20260507230501 56 278 4.0 8.0 0.00 0.00 0.00 39 1012.1
20260507230000 56 251 7.0 7.0 0.00 0.00 0.00 39 1012.0
20260507225501 56 256 2.0 8.0 0.00 0.00 0.00 40 1012.1
20260507225000 56 201 2.0 7.0 0.00 0.00 0.00 40 1011.9
20260507224506 56 12 1.0 14.0 0.00 0.00 0.00 39 1011.9
20260507224001 57 225 6.0 10.0 0.00 0.00 0.00 39 1011.9
20260507223502 58 270 6.0 12.0 0.00 0.00 0.00 38 1011.8
20260507223002 57 349 2.0 4.0 0.00 0.00 0.00 39 1011.6
20260507222501 59 89 0.0 2.0 0.00 0.00 0.00 39 1011.7
20260507222001 60 293 3.0 11.0 0.00 0.00 0.00 37 1011.7
20260507221500 60 185 2.0 7.0 0.00 0.00 0.00 37 1011.8
20260507221006 57 211 3.0 10.0 0.00 0.00 0.00 39 1011.4
20260507220510 58 245 4.0 9.0 0.00 0.00 0.00 38 1011.6
20260507220000 60 55 1.0 4.0 0.00 0.00 0.00 37 1011.5
20260507215506 58 290 1.0 5.0 0.00 0.00 0.00 38 1011.3
20260507215006 57 230 4.0 11.0 0.00 0.00 0.00 39 1011.4
20260507214500 60 353 4.0 6.0 0.00 0.00 0.00 36 1011.1
20260507214001 61 22 4.0 6.0 0.00 0.00 0.00 36 1011.3
20260507213500 60 184 2.0 6.0 0.00 0.00 0.00 37 1011.0
20260507213001 57 218 6.0 6.0 0.00 0.00 0.00 38 1011.5
20260507212500 57 244 5.0 10.0 0.00 0.00 0.00 39 1011.5
20260507212000 59 287 5.0 11.0 0.00 0.00 0.00 40 1011.4
20260507211501 59 267 3.0 8.0 0.00 0.00 0.00 37 1011.3
20260507211001 60 274 6.0 9.0 0.00 0.00 0.00 38 1011.0
20260507210501 61 259 6.0 8.0 0.00 0.00 0.00 38 1011.2
20260507210001 59 17 6.0 6.0 0.00 0.00 0.00 39 1011.0
20260507205505 59 248 8.0 12.0 0.00 0.00 0.00 40 1011.0
20260507205001 61 271 4.0 7.0 0.00 0.00 0.00 38 1011.1
20260507204501 61 358 6.0 9.0 0.00 0.00 0.00 37 1011.1
20260507204000 60 241 5.0 6.0 0.00 0.00 0.00 41 1011.0
20260507203506 58 357 3.0 6.0 0.00 0.00 0.00 39 1011.3
20260507203000 58 269 3.0 8.0 0.00 0.00 0.00 39 1011.2
20260507202501 59 259 1.0 5.0 0.00 0.00 0.00 39 1011.1
20260507202001 60 301 2.0 12.0 0.00 0.00 0.00 40 1011.1
20260507201500 60 330 5.0 7.0 0.00 0.00 0.00 37 1011.1
20260507201000 59 122 0.0 17.0 0.00 0.00 0.00 37 1011.2
20260507200506 60 232 4.0 9.0 0.00 0.00 0.00 37 1011.5
20260507200005 60 311 2.0 4.0 0.00 0.00 0.00 39 1011.2
20260507195506 58 289 3.0 8.0 0.00 0.00 0.00 40 1011.5
20260507195006 60 252 2.0 6.0 0.00 0.00 0.00 38 1011.2
20260507194500 61 297 3.0 11.0 0.00 0.00 0.00 37 1011.2
20260507194001 60 350 2.0 6.0 0.00 0.00 0.00 38 1011.5
20260507193501 61 237 14.0 15.0 0.00 0.00 0.00 36 1011.5
20260507193005 61 28 2.0 10.0 0.00 0.00 0.00 40 1011.3
20260507192501 58 281 1.0 6.0 0.00 0.00 0.00 41 1011.5
20260507192000 59 218 3.0 9.0 0.00 0.00 0.00 38 1011.5
20260507191501 61 268 6.0 9.0 0.00 0.00 0.00 39 1011.6
20260507191001 60 220 4.0 4.0 0.00 0.00 0.00 39 1011.5
20260507190501 57 34 2.0 4.0 0.00 0.00 0.00 43 1011.5
20260507190001 58 345 3.0 10.0 0.00 0.00 0.00 43 1011.6
20260507185502 58 12 3.0 5.0 0.00 0.00 0.00 42 1011.9
20260507185001 58 15 6.0 9.0 0.00 0.00 0.00 41 1011.6
20260507184501 58 42 0.0 12.0 0.00 0.00 0.00 43 1011.7
20260507184010 58 229 7.0 10.0 0.00 0.00 0.00 42 1011.6
20260507183501 57 321 3.0 7.0 0.00 0.00 0.00 42 1011.7
20260507183002 58 355 4.0 6.0 0.00 0.00 0.00 41 1011.7
20260507182501 58 249 3.0 9.0 0.00 0.00 0.00 45 1011.8
20260507182001 58 206 3.0 14.0 0.00 0.00 0.00 42 1011.9
20260507181506 59 220 5.0 13.0 0.00 0.00 0.00 49 1012.0
20260507181001 59 1 7.0 8.0 0.00 0.00 0.00 44 1011.9
20260507180501 57 252 4.0 5.0 0.00 0.00 0.00 45 1011.9
20260507180005 58 82 2.0 5.0 0.00 0.00 0.00 45 1012.1
20260507175506 56 157 0.0 6.0 0.00 0.00 0.00 46 1012.0
20260507175001 57 238 3.0 6.0 0.00 0.00 0.00 44 1012.0
20260507174501 56 251 4.0 8.0 0.00 0.00 0.00 45 1012.0
20260507174001 57 333 4.0 6.0 0.00 0.00 0.00 47 1012.2
20260507173501 56 279 5.0 6.0 0.00 0.00 0.00 47 1012.3
20260507173006 58 260 2.0 5.0 0.00 0.00 0.00 46 1012.3
20260507172500 58 356 3.0 4.0 0.00 0.00 0.00 51 1012.2
20260507172001 56 224 4.0 6.0 0.00 0.00 0.00 50 1012.5
20260507171500 58 245 4.0 6.0 0.00 0.00 0.00 48 1012.3
20260507171006 57 278 3.0 8.0 0.00 0.00 0.00 48 1012.3
20260507170500 56 230 4.0 5.0 0.00 0.00 0.00 49 1012.5
20260507170001 56 255 1.0 7.0 0.00 0.00 0.00 49 1012.7
20260507165500 55 4 1.0 5.0 0.00 0.00 0.00 48 1012.7
20260507165001 55 252 5.0 5.0 0.00 0.00 0.00 46 1012.5
20260507164501 56 246 8.0 11.0 0.00 0.00 0.00 46 1012.7
20260507164005 56 257 8.0 8.0 0.00 0.00 0.00 45 1012.6
20260507163501 56 86 2.0 6.0 0.00 0.00 0.00 46 1012.5
20260507163000 59 36 2.0 4.0 0.00 0.00 0.00 47 1012.7
20260507162501 56 231 2.0 9.0 0.00 0.00 0.00 50 1012.7
20260507162000 55 284 2.0 6.0 0.00 0.00 0.00 49 1012.7
20260507161501 55 251 6.0 11.0 0.00 0.00 0.00 45 1012.7
20260507161000 56 242 6.0 7.0 0.00 0.00 0.00 45 1012.9
20260507160506 56 242 5.0 10.0 0.00 0.00 0.00 48 1013.0
20260507160001 55 247 5.0 9.0 0.00 0.00 0.00 44 1013.1
20260507155516 57 219 4.0 8.0 0.00 0.00 0.00 46 1013.0
20260507155006 57 245 6.0 13.0 0.00 0.00 0.00 44 1013.2
20260507154501 56 234 4.0 14.0 0.00 0.00 0.00 45 1013.3
20260507154001 56 257 6.0 10.0 0.00 0.00 0.00 49 1013.0
20260507153500 55 265 2.0 7.0 0.00 0.00 0.00 48 1013.2
20260507153001 55 255 5.0 8.0 0.00 0.00 0.00 47 1013.3
20260507152505 55 234 6.0 12.0 0.00 0.00 0.00 47 1013.3
20260507152001 55 243 7.0 11.0 0.00 0.00 0.00 45 1013.4
20260507151500 56 80 3.0 9.0 0.00 0.00 0.00 54 1013.4
20260507151006 55 262 4.0 7.0 0.00 0.00 0.00 49 1013.6
20260507150501 55 254 7.0 10.0 0.00 0.00 0.00 48 1013.6
20260507150011 55 233 9.0 12.0 0.00 0.00 0.00 46 1013.6
20260507145500 56 193 2.0 9.0 0.00 0.00 0.00 50 1013.4
20260507145001 56 255 4.0 6.0 0.00 0.00 0.00 50 1013.6
20260507144501 54 87 3.0 5.0 0.00 0.00 0.00 52 1013.8
20260507144003 55 272 8.0 10.0 0.00 0.00 0.00 53 1013.9
20260507143500 54 203 6.0 11.0 0.00 0.00 0.00 54 1013.7
20260507143001 54 219 2.0 5.0 0.00 0.00 0.00 54 1013.9
20260507142507 54 286 6.0 12.0 0.00 0.00 0.00 53 1014.0
20260507142001 53 263 4.0 8.0 0.00 0.00 0.00 56 1014.0
20260507141501 55 257 5.0 6.0 0.00 0.00 0.00 57 1014.3
20260507141001 54 213 4.0 4.0 0.00 0.00 0.00 59 1014.2
20260507140500 54 208 7.0 8.0 0.00 0.00 0.00 57 1014.2
20260507140001 52 250 7.0 9.0 0.00 0.00 0.00 56 1014.3
20260507135501 54 238 2.0 4.0 0.00 0.00 0.00 57 1014.2
20260507135001 53 182 6.0 11.0 0.00 0.00 0.00 56 1014.1
20260507134500 51 276 4.0 10.0 0.00 0.00 0.00 61 1014.5
20260507134001 51 228 4.0 9.0 0.00 0.00 0.00 59 1014.4
20260507133501 51 276 7.0 11.0 0.00 0.00 0.00 59 1014.3
20260507133001 52 229 5.0 10.0 0.00 0.00 0.00 59 1014.2
20260507132506 52 227 6.0 10.0 0.00 0.00 0.00 58 1014.4
20260507132000 51 242 1.0 4.0 0.00 0.00 0.00 59 1014.2
20260507131501 51 224 6.0 6.0 0.00 0.00 0.00 59 1014.4
20260507131011 51 260 3.0 6.0 0.00 0.00 0.00 62 1014.6
20260507130506 50 198 2.0 6.0 0.00 0.00 0.00 65 1014.4
20260507130006 49 221 4.0 6.0 0.00 0.00 0.00 66 1014.4
20260507125501 49 230 4.0 5.0 0.00 0.00 0.00 66 1014.5
20260507125011 48 186 2.0 6.0 0.00 0.00 0.00 70 1014.6
20260507124501 48 202 3.0 7.0 0.00 0.00 0.00 71 1014.4
20260507124000 47 230 2.0 4.0 0.00 0.00 0.00 73 1014.5
20260507123506 47 221 3.0 4.0 0.00 0.00 0.00 76 1014.4
20260507123001 46 243 3.0 4.0 0.00 0.00 0.00 78 1014.4
20260507122501 44 269 0.0 2.0 0.00 0.00 0.00 83 1014.4
20260507122000 43 193 0.0 2.0 0.00 0.00 0.00 90 1014.6
20260507121501 42 188 2.0 2.0 0.00 0.00 0.00 94 1014.6
20260507121001 42 172 0.0 1.0 0.00 0.00 0.00 95 1014.5
20260507120500 42 106 0.0 2.0 0.00 0.00 0.00 96 1014.3
20260507120001 41 78 0.0 1.0 0.00 0.00 0.00 96 1014.4
20260507115501 40 119 0.0 0.0 0.00 0.00 0.00 96 1014.4
20260507115000 39 212 0.0 1.0 0.00 0.00 0.00 96 1014.5
20260507114501 39 209 0.0 2.0 0.00 0.00 0.00 97 1014.7
20260507114001 37 147 1.0 2.0 0.00 0.00 0.00 96 1014.5
20260507113501 37 134 0.0 2.0 0.00 0.00 0.00 96 1014.4
20260507113000 37 89 0.0 1.0 0.00 0.00 0.00 96 1014.4
20260507112500 36 91 0.0 2.0 0.00 0.00 0.00 96 1014.2
20260507112006 36 72 0.0 1.0 0.00 0.00 0.00 96 1014.5
20260507111506 36 39 0.0 1.0 0.00 0.00 0.00 96 1014.3
20260507111006 35 52 0.0 2.0 0.00 0.00 0.00 96 1014.2
20260507110500 35 66 0.0 0.0 0.00 0.00 0.00 96 1014.3
20260507110001 35 107 0.0 1.0 0.00 0.00 0.00 96 1014.2
20260507105500 35 71 0.0 2.0 0.00 0.00 0.00 96 1014.3
20260507105001 35 54 0.0 2.0 0.00 0.00 0.00 96 1014.0
20260507104501 34 142 0.0 0.0 0.00 0.00 0.00 96 1014.0
20260507104000 34 89 0.0 0.0 0.00 0.00 0.00 96 1013.9
20260507103506 34 89 0.0 1.0 0.00 0.00 0.00 96 1014.0
20260507103000 34 107 0.0 0.0 0.00 0.00 0.00 96 1013.9
20260507102501 34 130 0.0 0.0 0.00 0.00 0.00 96 1013.8
20260507102000 35 310 0.0 1.0 0.00 0.00 0.00 96 1013.9
20260507101501 35 135 0.0 1.0 0.00 0.00 0.00 96 1013.8
20260507101006 35 95 0.0 2.0 0.00 0.00 0.00 96 1014.1
20260507100500 35 69 0.0 1.0 0.00 0.00 0.00 95 1014.0
20260507100006 35 111 0.0 1.0 0.00 0.00 0.00 95 1013.9
20260507095500 35 98 0.0 1.0 0.00 0.00 0.00 95 1014.1
20260507095001 35 109 0.0 2.0 0.00 0.00 0.00 95 1014.0
20260507094500 35 133 0.0 1.0 0.00 0.00 0.00 95 1013.9
20260507094006 35 76 0.0 1.0 0.00 0.00 0.00 95 1013.8
20260507093501 36 89 0.0 0.0 0.00 0.00 0.00 95 1013.9
20260507093001 36 81 0.0 1.0 0.00 0.00 0.00 95 1014.2
20260507092501 36 114 0.0 0.0 0.00 0.00 0.00 95 1014.1
20260507092000 36 110 0.0 1.0 0.00 0.00 0.00 95 1014.1
20260507091501 35 76 0.0 0.0 0.00 0.00 0.00 95 1014.1
20260507091000 36 122 0.0 1.0 0.00 0.00 0.00 95 1014.0
20260507090501 36 60 0.0 0.0 0.00 0.00 0.00 95 1014.0
20260507090000 36 148 0.0 2.0 0.00 0.00 0.00 95 1013.9
20260507085501 36 70 0.0 1.0 0.00 0.00 0.00 95 1014.1
20260507085006 36 110 0.0 1.0 0.00 0.00 0.00 95 1013.9
20260507084500 36 110 0.0 1.0 0.00 0.00 0.00 95 1014.1
20260507084001 37 67 1.0 1.0 0.00 0.00 0.00 94 1014.0
20260507083501 36 56 0.0 1.0 0.00 0.00 0.00 94 1014.1
20260507083000 37 65 0.0 0.0 0.00 0.00 0.00 94 1013.9
20260507082501 37 65 1.0 2.0 0.00 0.00 0.00 94 1014.3
20260507082006 37 57 0.0 2.0 0.00 0.00 0.00 94 1014.0
20260507081505 37 17 0.0 2.0 0.00 0.00 0.00 94 1013.8
20260507081001 37 85 0.0 2.0 0.00 0.00 0.00 94 1014.2
20260507080500 37 39 1.0 2.0 0.00 0.00 0.00 94 1014.0
20260507080001 37 79 0.0 2.0 0.00 0.00 0.00 94 1014.2
20260507075500 38 103 0.0 1.0 0.00 0.00 0.00 94 1014.0
20260507075001 37 352 0.0 2.0 0.00 0.00 0.00 93 1014.1
20260507074501 37 135 0.0 1.0 0.00 0.00 0.00 93 1014.1
20260507074000 38 83 0.0 1.0 0.00 0.00 0.00 93 1014.0
20260507073501 38 73 0.0 2.0 0.00 0.00 0.00 93 1014.4
20260507073000 38 76 1.0 2.0 0.00 0.00 0.00 92 1014.1
20260507072501 38 55 0.0 1.0 0.00 0.00 0.00 92 1014.1
20260507072000 38 6 0.0 2.0 0.00 0.00 0.00 92 1014.2
20260507071501 38 2 0.0 2.0 0.00 0.00 0.00 92 1014.1
20260507071000 39 191 0.0 1.0 0.00 0.00 0.00 92 1014.3
20260507070501 39 44 0.0 2.0 0.00 0.00 0.00 91 1014.3
20260507070000 39 100 1.0 1.0 0.00 0.00 0.00 91 1014.2
20260507065501 39 113 0.0 2.0 0.00 0.00 0.00 91 1014.2
20260507065000 40 76 0.0 2.0 0.00 0.00 0.00 90 1014.1
20260507064501 40 11 1.0 2.0 0.00 0.00 0.00 90 1014.3
20260507064001 40 58 0.0 2.0 0.00 0.00 0.00 90 1014.1
20260507063506 41 85 0.0 1.0 0.00 0.00 0.00 89 1014.2
20260507063006 41 89 0.0 1.0 0.00 0.00 0.00 89 1014.3
20260507062501 41 69 0.0 2.0 0.00 0.00 0.00 88 1014.4
20260507062001 41 89 0.0 1.0 0.00 0.00 0.00 87 1014.2
20260507061505 42 65 1.0 2.0 0.00 0.00 0.00 86 1014.4
20260507061000 42 19 0.0 2.0 0.00 0.00 0.00 85 1014.2
20260507060501 42 65 0.0 1.0 0.00 0.00 0.00 85 1014.4
20260507060000 42 24 2.0 2.0 0.00 0.00 0.00 83 1014.7
20260507055506 43 75 0.0 1.0 0.00 0.00 0.00 82 1014.5
20260507055000 43 33 0.0 1.0 0.00 0.00 0.00 83 1014.3
20260507054506 43 53 1.0 1.0 0.00 0.00 0.00 84 1014.5
20260507054001 44 63 0.0 2.0 0.00 0.00 0.00 85 1014.7
20260507053501 44 124 0.0 1.0 0.00 0.00 0.00 84 1014.8
20260507053001 44 169 1.0 2.0 0.00 0.00 0.00 84 1015.0
20260507052500 44 136 1.0 2.0 0.00 0.00 0.00 81 1015.0
20260507052001 44 107 0.0 1.0 0.00 0.00 0.00 81 1015.0
20260507051500 44 99 0.0 2.0 0.00 0.00 0.00 82 1015.1
20260507051001 45 63 0.0 1.0 0.00 0.00 0.00 82 1015.1
20260507050500 45 208 0.0 1.0 0.00 0.00 0.00 80 1015.2
20260507050001 45 63 0.0 2.0 0.00 0.00 0.00 73 1015.2
20260507045505 45 26 0.0 2.0 0.00 0.00 0.00 73 1015.1
20260507045006 45 64 1.0 1.0 0.00 0.00 0.00 72 1015.0
20260507044500 45 322 0.0 1.0 0.00 0.00 0.00 73 1015.0
20260507044001 45 183 0.0 1.0 0.00 0.00 0.00 73 1014.9
20260507043501 45 63 0.0 1.0 0.00 0.00 0.00 71 1014.9
20260507043000 45 339 1.0 2.0 0.00 0.00 0.00 71 1015.0
20260507042501 46 124 0.0 2.0 0.00 0.00 0.00 71 1015.0
20260507042011 46 24 1.0 2.0 0.00 0.00 0.00 71 1014.9
20260507041501 46 21 2.0 3.0 0.00 0.00 0.00 71 1015.0
20260507041001 46 33 1.0 2.0 0.00 0.00 0.00 71 1014.8
20260507040500 45 50 0.0 2.0 0.00 0.00 0.00 71 1014.8
20260507040000 45 20 0.0 2.0 0.00 0.00 0.56 75 1015.0
20260507035501 45 89 0.0 0.0 0.00 0.00 0.56 82 1015.1
20260507035000 46 125 0.0 2.0 0.00 0.00 0.56 79 1014.8
20260507034501 46 55 0.0 2.0 0.00 0.00 0.56 70 1014.8
20260507034001 46 43 2.0 2.0 0.00 0.00 0.56 70 1014.6
20260507033500 45 335 1.0 2.0 0.00 0.00 0.56 72 1014.5
20260507033001 46 89 1.0 1.0 0.00 0.00 0.56 73 1014.6
20260507032506 46 34 0.0 1.0 0.00 0.00 0.56 71 1014.4
20260507032001 46 49 0.0 2.0 0.00 0.00 0.56 73 1014.7
20260507031500 46 52 2.0 3.0 0.00 0.00 0.56 74 1014.6
20260507031001 45 44 0.0 1.0 0.00 0.00 0.56 73 1014.6
20260507030500 46 107 0.0 2.0 0.00 0.00 0.56 74 1014.6
20260507030001 46 185 0.0 0.0 0.00 0.00 0.56 72 1014.5
20260507025500 46 49 0.0 0.0 0.00 0.00 0.56 72 1014.5
20260507025001 46 354 0.0 1.0 0.00 0.00 0.56 75 1014.3
20260507024501 47 117 0.0 0.0 0.00 0.00 0.56 76 1014.4
20260507024000 47 55 0.0 2.0 0.00 0.00 0.56 65 1014.4
20260507023501 47 342 1.0 2.0 0.00 0.00 0.56 64 1014.2
20260507023000 48 359 2.0 3.0 0.00 0.00 0.56 63 1014.2
20260507022501 48 19 2.0 3.0 0.00 0.00 0.56 63 1014.2
20260507022005 48 34 0.0 3.0 0.00 0.00 0.56 63 1014.1
20260507021501 48 27 1.0 2.0 0.00 0.00 0.56 63 1014.3
20260507021000 48 17 2.0 4.0 0.00 0.00 0.56 61 1014.1
20260507020501 48 21 2.0 3.0 0.00 0.00 0.56 61 1014.2
20260507020001 48 18 2.0 4.0 0.00 0.00 0.56 61 1014.2
20260507015500 48 28 2.0 4.0 0.00 0.00 0.56 61 1014.0
20260507015001 48 16 2.0 3.0 0.00 0.00 0.56 63 1013.8
20260507014501 48 72 1.0 2.0 0.00 0.00 0.56 63 1013.7
20260507014001 48 61 0.0 2.0 0.00 0.00 0.56 64 1013.8
20260507013501 48 26 0.0 3.0 0.00 0.00 0.56 64 1013.5
20260507013001 48 49 2.0 3.0 0.00 0.00 0.56 64 1013.5
20260507012501 48 29 4.0 5.0 0.00 0.00 0.56 60 1013.7
20260507012001 48 39 6.0 8.0 0.00 0.00 0.56 60 1013.7
20260507011501 48 65 3.0 5.0 0.00 0.00 0.56 62 1013.9
20260507010501 49 52 1.0 3.0 0.00 0.00 0.56 61 1013.9
20260507010000 50 35 2.0 4.0 0.00 0.00 0.56 59 1013.9
20260507005501 50 24 3.0 4.0 0.00 0.00 0.56 58 1014.1
20260507005001 50 20 3.0 4.0 0.00 0.00 0.56 59 1014.1
20260507004506 50 45 2.0 4.0 0.00 0.00 0.56 58 1014.1
20260507004001 50 20 4.0 6.0 0.00 0.00 0.56 57 1014.0
20260507003501 50 29 2.0 5.0 0.00 0.00 0.56 58 1014.0
20260507003011 50 29 3.0 4.0 0.00 0.00 0.56 58 1014.0
20260507002500 50 37 3.0 8.0 0.00 0.00 0.56 58 1013.7